FIN5X EFKT-EFHK

Flight info

Callsign FIN5X
Flight time 1h 19m
Altitude 35000
Route AMULU DCT OTVEM DCT IBOSU Y86 LUSEP
Aircraft A321/M-SDE3FGHIRWY/LB1

Departure

Time 2026-05-07 16:31
Airport Kittilä International Airport (EFKT)

Arrival

Time 2026-05-07 17:50
Airport Helsinki Vantaa Airport (EFHK)
Time Latitude Longitude Altitude Speed Heading
2026-05-07 16:01 67.69541 24.85692 640 ft 0 kts 126°
2026-05-07 16:25 67.69540 24.85693 640 ft 1 kts 135°
2026-05-07 16:26 67.69526 24.85670 644 ft 2 kts 222°
2026-05-07 16:26 67.69521 24.85657 642 ft 3 kts 223°
2026-05-07 16:26 67.69513 24.85635 640 ft 2 kts 229°
2026-05-07 16:26 67.69534 24.85554 642 ft 13 kts 344°
2026-05-07 16:27 67.69602 24.85494 638 ft 10 kts 341°
2026-05-07 16:27 67.69664 24.85448 642 ft 7 kts
2026-05-07 16:27 67.69635 24.85501 640 ft 14 kts 180°
2026-05-07 16:27 67.69492 24.85539 641 ft 22 kts 165°
2026-05-07 16:28 67.69423 24.85652 643 ft 5 kts 50°
2026-05-07 16:28 67.69491 24.85598 644 ft 17 kts 323°
2026-05-07 16:28 67.69532 24.85422 639 ft 7 kts 280°
2026-05-07 16:28 67.69522 24.85310 645 ft 6 kts 253°
2026-05-07 16:29 67.69513 24.85224 643 ft 4 kts 253°
2026-05-07 16:29 67.69506 24.85163 641 ft 3 kts 254°
2026-05-07 16:29 67.69506 24.85127 647 ft 1 kts 276°
2026-05-07 16:29 67.69535 24.85058 639 ft 8 kts 329°
2026-05-07 16:30 67.69547 24.85050 642 ft 0 kts 348°
2026-05-07 16:30 67.69552 24.85047 641 ft 12 kts 347°
2026-05-07 16:30 67.69926 24.84800 640 ft 94 kts 346°
2026-05-07 16:30 67.70769 24.84255 692 ft 147 kts 345°
2026-05-07 16:31 67.71748 24.83585 1410 ft 144 kts 346°
2026-05-07 16:31 67.72735 24.82968 2095 ft 149 kts 345°
2026-05-07 16:31 67.73644 24.81461 2352 ft 169 kts 306°
2026-05-07 16:31 67.74000 24.78373 2573 ft 190 kts 264°
2026-05-07 16:32 67.73401 24.75184 2793 ft 212 kts 225°
2026-05-07 16:32 67.72215 24.72434 2983 ft 238 kts 219°
2026-05-07 16:32 67.70911 24.69667 3644 ft 246 kts 219°
2026-05-07 16:32 67.69558 24.66842 4474 ft 251 kts 219°
2026-05-07 16:33 67.68144 24.64090 5284 ft 255 kts 208°
2026-05-07 16:33 67.66453 24.62364 5957 ft 266 kts 199°
2026-05-07 16:33 67.64678 24.60833 6772 ft 270 kts 199°
2026-05-07 16:33 67.62887 24.59298 7592 ft 272 kts 199°
2026-05-07 16:34 67.61079 24.57748 8424 ft 274 kts 199°
2026-05-07 16:34 67.59255 24.56172 9214 ft 277 kts 199°
2026-05-07 16:34 67.57418 24.54576 9987 ft 280 kts 199°
2026-05-07 16:34 67.55525 24.52932 10351 ft 296 kts 199°
2026-05-07 16:35 67.53499 24.51168 10486 ft 318 kts 199°
2026-05-07 16:35 67.51363 24.49308 10745 ft 334 kts 199°
2026-05-07 16:35 67.49140 24.47383 11364 ft 339 kts 199°
2026-05-07 16:35 67.46890 24.45441 12037 ft 342 kts 199°
2026-05-07 16:36 67.44619 24.43491 12726 ft 344 kts 199°
2026-05-07 16:36 67.42335 24.41534 13406 ft 347 kts 199°
2026-05-07 16:36 67.40031 24.39555 14049 ft 350 kts 199°
2026-05-07 16:36 67.37657 24.38023 14622 ft 354 kts 189°
2026-05-07 16:37 67.35184 24.37600 15193 ft 358 kts 182°
2026-05-07 16:37 67.32677 24.37432 15764 ft 361 kts 182°
2026-05-07 16:37 67.30146 24.37249 16334 ft 364 kts 183°
2026-05-07 16:37 67.27606 24.37054 16907 ft 367 kts 183°
2026-05-07 16:38 67.25045 24.36853 17486 ft 370 kts 183°
2026-05-07 16:38 67.22460 24.36656 18031 ft 373 kts 183°
2026-05-07 16:38 67.19863 24.36460 18531 ft 375 kts 183°
2026-05-07 16:38 67.17245 24.36263 19002 ft 377 kts 182°
2026-05-07 16:39 67.14616 24.36072 19459 ft 379 kts 183°
2026-05-07 16:39 67.11975 24.36156 19880 ft 381 kts 178°
2026-05-07 16:39 67.09316 24.36597 20315 ft 384 kts 177°
2026-05-07 16:39 67.06647 24.37144 20744 ft 386 kts 176°
2026-05-07 16:40 67.03999 24.37735 21164 ft 388 kts 176°
2026-05-07 16:40 67.01305 24.38344 21592 ft 390 kts 176°
2026-05-07 16:40 66.98592 24.38944 22029 ft 392 kts 176°
2026-05-07 16:40 66.95861 24.39526 22443 ft 395 kts 176°
2026-05-07 16:41 66.93114 24.40093 22870 ft 397 kts 176°
2026-05-07 16:41 66.90346 24.40657 23300 ft 400 kts 176°
2026-05-07 16:41 66.87567 24.41217 23701 ft 402 kts 177°
2026-05-07 16:41 66.84768 24.41781 24042 ft 405 kts 177°
2026-05-07 16:42 66.81953 24.42353 24380 ft 407 kts 177°
2026-05-07 16:42 66.79117 24.42930 24718 ft 410 kts 177°
2026-05-07 16:42 66.76269 24.43509 25039 ft 412 kts 177°
2026-05-07 16:42 66.73404 24.44086 25356 ft 414 kts 177°
2026-05-07 16:43 66.70521 24.44661 25667 ft 417 kts 177°
2026-05-07 16:43 66.67613 24.45242 25974 ft 419 kts 177°
2026-05-07 16:43 66.64696 24.45827 26274 ft 421 kts 177°
2026-05-07 16:43 66.61762 24.46418 26564 ft 424 kts 178°
2026-05-07 16:44 66.58814 24.47011 26880 ft 426 kts 178°
2026-05-07 16:44 66.55858 24.47603 27166 ft 428 kts 178°
2026-05-07 16:44 66.52879 24.48192 27452 ft 430 kts 178°
2026-05-07 16:44 66.49889 24.48778 27734 ft 432 kts 178°
2026-05-07 16:45 66.46883 24.49367 28024 ft 434 kts 178°
2026-05-07 16:45 66.43907 24.49953 28280 ft 436 kts 178°
2026-05-07 16:45 66.40877 24.50553 28544 ft 438 kts 178°
2026-05-07 16:45 66.37835 24.51149 28794 ft 440 kts 179°
2026-05-07 16:46 66.34776 24.51742 29012 ft 442 kts 179°
2026-05-07 16:46 66.31703 24.52333 29234 ft 444 kts 179°
2026-05-07 16:46 66.28625 24.52928 29430 ft 445 kts 179°
2026-05-07 16:46 66.25532 24.53531 29615 ft 447 kts 179°
2026-05-07 16:47 66.22431 24.54143 29835 ft 447 kts 179°
2026-05-07 16:47 66.19332 24.54752 30119 ft 446 kts 179°
2026-05-07 16:47 66.16239 24.55352 30323 ft 446 kts 179°
2026-05-07 16:47 66.13144 24.55943 30519 ft 446 kts 179°
2026-05-07 16:48 66.10053 24.56533 30719 ft 446 kts 179°
2026-05-07 16:48 66.06960 24.57118 30906 ft 446 kts 179°
2026-05-07 16:48 66.03858 24.57700 31098 ft 446 kts 179°
2026-05-07 16:48 66.00758 24.58283 31285 ft 447 kts 179°
2026-05-07 16:49 65.97659 24.58872 31457 ft 447 kts 179°
2026-05-07 16:49 65.94550 24.59466 31639 ft 447 kts 179°
2026-05-07 16:49 65.91440 24.60060 31823 ft 448 kts 179°
2026-05-07 16:49 65.88332 24.60652 32002 ft 448 kts 179°
2026-05-07 16:50 65.85264 24.61231 32153 ft 448 kts 179°
2026-05-07 16:50 65.82117 24.61823 32361 ft 447 kts 180°
2026-05-07 16:50 65.79052 24.62399 32560 ft 447 kts 180°
2026-05-07 16:50 65.75949 24.62977 32750 ft 447 kts 180°
2026-05-07 16:51 65.72837 24.63551 32938 ft 447 kts 180°
2026-05-07 16:51 65.69731 24.64123 33117 ft 448 kts 180°
2026-05-07 16:51 65.66624 24.64695 33301 ft 448 kts 180°
2026-05-07 16:51 65.63516 24.65264 33477 ft 448 kts 180°
2026-05-07 16:52 65.60413 24.65831 33652 ft 448 kts 180°
2026-05-07 16:52 65.57300 24.66405 33837 ft 448 kts 179°
2026-05-07 16:52 65.54189 24.66983 34005 ft 448 kts 179°
2026-05-07 16:52 65.51079 24.67558 34143 ft 448 kts 180°
2026-05-07 16:53 65.47971 24.68125 34300 ft 448 kts 180°
2026-05-07 16:53 65.44901 24.68680 34443 ft 447 kts 180°
2026-05-07 16:53 65.41799 24.69236 34589 ft 447 kts 180°
2026-05-07 16:53 65.38688 24.69796 34733 ft 447 kts 180°
2026-05-07 16:54 65.35589 24.70357 34876 ft 447 kts 180°
2026-05-07 16:54 65.32493 24.70915 35001 ft 447 kts 180°
2026-05-07 16:54 65.29392 24.71475 35041 ft 445 kts 180°
2026-05-07 16:55 65.23225 24.72596 35046 ft 443 kts 180°
2026-05-07 16:55 65.17081 24.73701 35029 ft 443 kts 180°
2026-05-07 16:56 65.10940 24.74795 35051 ft 442 kts 180°
2026-05-07 16:56 65.01740 24.76400 35052 ft 442 kts 180°
2026-05-07 16:57 64.95601 24.77472 35056 ft 442 kts 180°
2026-05-07 16:57 64.89467 24.78554 35056 ft 442 kts 180°
2026-05-07 16:58 64.83365 24.79642 35059 ft 443 kts 180°
2026-05-07 16:58 64.77220 24.80703 35054 ft 442 kts 180°
2026-05-07 16:59 64.71080 24.81733 35062 ft 442 kts 180°
2026-05-07 16:59 64.64947 24.82783 35067 ft 442 kts 180°
2026-05-07 17:00 64.58813 24.83854 35067 ft 441 kts 180°
2026-05-07 17:00 64.52683 24.84905 35052 ft 441 kts 181°
2026-05-07 17:01 64.46576 24.85930 35044 ft 440 kts 181°
2026-05-07 17:01 64.40484 24.86959 35063 ft 438 kts 181°
2026-05-07 17:02 64.34404 24.87987 35070 ft 437 kts 181°
2026-05-07 17:02 64.28374 24.89001 35071 ft 437 kts 181°
2026-05-07 17:03 64.22310 24.89989 35077 ft 436 kts 181°
2026-05-07 17:03 64.16253 24.90983 35076 ft 436 kts 181°
2026-05-07 17:04 64.10194 24.92000 35051 ft 436 kts 181°
2026-05-07 17:04 64.05156 24.92844 35063 ft 436 kts 181°
2026-05-07 17:05 63.99094 24.93838 35084 ft 436 kts 181°
2026-05-07 17:05 63.93039 24.94812 35086 ft 436 kts 181°
2026-05-07 17:06 63.86987 24.95796 35071 ft 435 kts 182°
2026-05-07 17:06 63.80949 24.96770 35084 ft 434 kts 182°
2026-05-07 17:07 63.74927 24.97733 35073 ft 433 kts 182°
2026-05-07 17:07 63.68954 24.98708 35086 ft 433 kts 182°
2026-05-07 17:08 63.62944 24.99667 35091 ft 432 kts 182°
2026-05-07 17:08 63.56936 25.00598 35094 ft 432 kts 182°
2026-05-07 17:09 63.50933 25.01531 35097 ft 433 kts 182°
2026-05-07 17:09 63.44925 25.02493 35098 ft 433 kts 182°
2026-05-07 17:10 63.38912 25.03436 35073 ft 432 kts 182°
2026-05-07 17:10 63.32945 25.04366 35081 ft 432 kts 182°
2026-05-07 17:11 63.26941 25.05307 35084 ft 432 kts 182°
2026-05-07 17:11 63.20936 25.06232 35076 ft 432 kts 182°
2026-05-07 17:12 63.14938 25.07156 35086 ft 432 kts 182°
2026-05-07 17:12 63.08941 25.08071 35088 ft 432 kts 182°
2026-05-07 17:13 63.02940 25.08987 35060 ft 431 kts 182°
2026-05-07 17:13 62.96988 25.09901 35074 ft 431 kts 182°
2026-05-07 17:14 62.90985 25.10809 35081 ft 432 kts 182°
2026-05-07 17:14 62.84994 25.11712 35085 ft 432 kts 182°
2026-05-07 17:15 62.78994 25.12633 35090 ft 432 kts 182°
2026-05-07 17:15 62.73002 25.13527 35091 ft 431 kts 182°
2026-05-07 17:16 62.67017 25.14419 35086 ft 431 kts 183°
2026-05-07 17:16 62.61075 25.15293 35064 ft 430 kts 183°
2026-05-07 17:17 62.55109 25.16187 35090 ft 429 kts 183°
2026-05-07 17:17 62.49168 25.17068 35107 ft 428 kts 183°
2026-05-07 17:18 62.43224 25.17926 35105 ft 427 kts 183°
2026-05-07 17:18 62.37297 25.18790 35094 ft 427 kts 183°
2026-05-07 17:19 62.31373 25.19656 35105 ft 426 kts 183°
2026-05-07 17:19 62.25494 25.20508 35099 ft 426 kts 183°
2026-05-07 17:20 62.19586 25.21367 35096 ft 426 kts 183°
2026-05-07 17:20 62.16630 25.21795 34953 ft 425 kts 183°
2026-05-07 17:20 62.13680 25.22223 34723 ft 424 kts 183°
2026-05-07 17:21 62.10736 25.22647 34489 ft 424 kts 184°
2026-05-07 17:21 62.07795 25.23068 34261 ft 423 kts 184°
2026-05-07 17:21 62.04862 25.23487 34026 ft 422 kts 184°
2026-05-07 17:21 62.01936 25.23905 33710 ft 420 kts 184°
2026-05-07 17:22 61.99025 25.24322 33323 ft 418 kts 184°
2026-05-07 17:22 61.96114 25.24735 32459 ft 420 kts 185°
2026-05-07 17:22 61.93216 25.25144 31895 ft 414 kts 185°
2026-05-07 17:22 61.90365 25.25559 31389 ft 407 kts 185°
2026-05-07 17:23 61.87560 25.25970 30877 ft 401 kts 185°
2026-05-07 17:23 61.84797 25.26372 30362 ft 396 kts 186°
2026-05-07 17:23 61.82062 25.26763 29814 ft 390 kts 186°
2026-05-07 17:23 61.79385 25.27143 29330 ft 383 kts 186°
2026-05-07 17:24 61.76752 25.27516 28851 ft 375 kts 186°
2026-05-07 17:24 61.74175 25.27874 28382 ft 368 kts 186°
2026-05-07 17:24 61.71641 25.28224 27925 ft 361 kts 186°
2026-05-07 17:24 61.69154 25.28567 27477 ft 354 kts 186°
2026-05-07 17:25 61.66719 25.28905 27051 ft 346 kts 186°
2026-05-07 17:25 61.64327 25.29235 26624 ft 342 kts 186°
2026-05-07 17:25 61.61990 25.29523 26200 ft 339 kts 188°
2026-05-07 17:25 61.59648 25.29433 25774 ft 335 kts 190°
2026-05-07 17:26 61.57319 25.29308 25366 ft 335 kts 190°
2026-05-07 17:26 61.54991 25.29190 24958 ft 334 kts 190°
2026-05-07 17:26 61.52671 25.29084 24557 ft 334 kts 189°
2026-05-07 17:26 61.50347 25.28980 24176 ft 333 kts 189°
2026-05-07 17:27 61.48030 25.28873 23772 ft 332 kts 189°
2026-05-07 17:27 61.45718 25.28761 23337 ft 332 kts 189°
2026-05-07 17:27 61.43415 25.28648 22971 ft 330 kts 189°
2026-05-07 17:27 61.41123 25.28538 22595 ft 329 kts 189°
2026-05-07 17:28 61.38837 25.28436 22222 ft 327 kts 189°
2026-05-07 17:28 61.36562 25.28333 21843 ft 327 kts 188°
2026-05-07 17:28 61.34292 25.28227 21454 ft 326 kts 188°
2026-05-07 17:28 61.32060 25.28123 21103 ft 325 kts 188°
2026-05-07 17:29 61.29801 25.28020 20733 ft 324 kts 188°
2026-05-07 17:29 61.27550 25.27923 20337 ft 322 kts 188°
2026-05-07 17:29 61.25311 25.27828 19942 ft 321 kts 187°
2026-05-07 17:29 61.23074 25.27732 19548 ft 320 kts 187°
2026-05-07 17:30 61.20853 25.27631 19149 ft 319 kts 187°
2026-05-07 17:30 61.18642 25.27525 18761 ft 317 kts 187°
2026-05-07 17:30 61.16438 25.27419 18373 ft 316 kts 187°
2026-05-07 17:30 61.14244 25.27318 17941 ft 315 kts 187°
2026-05-07 17:31 61.12052 25.27218 17548 ft 314 kts 187°
2026-05-07 17:31 61.09874 25.27119 17166 ft 313 kts 186°
2026-05-07 17:31 61.07702 25.27024 16782 ft 311 kts 186°
2026-05-07 17:31 61.05568 25.26933 16396 ft 310 kts 186°
2026-05-07 17:32 61.03385 25.26838 16029 ft 309 kts 186°
2026-05-07 17:32 61.01239 25.26744 15665 ft 308 kts 186°
2026-05-07 17:32 60.99128 25.26653 15296 ft 307 kts 186°
2026-05-07 17:32 60.96998 25.26561 14929 ft 305 kts 185°
2026-05-07 17:33 60.94876 25.26476 14566 ft 304 kts 185°
2026-05-07 17:33 60.92760 25.26508 14189 ft 304 kts 183°
2026-05-07 17:33 60.90651 25.26637 13820 ft 303 kts 182°
2026-05-07 17:33 60.88539 25.26798 13279 ft 303 kts 181°
2026-05-07 17:34 60.86388 25.26925 12366 ft 314 kts 181°
2026-05-07 17:34 60.84184 25.26964 11692 ft 318 kts 185°
2026-05-07 17:34 60.82003 25.26446 11213 ft 315 kts 190°
2026-05-07 17:34 60.79845 25.25755 10751 ft 314 kts 191°
2026-05-07 17:35 60.77695 25.25032 10306 ft 311 kts 191°
2026-05-07 17:35 60.75569 25.24301 9853 ft 309 kts 191°
2026-05-07 17:35 60.73458 25.23555 9344 ft 306 kts 191°
2026-05-07 17:35 60.71370 25.22826 8857 ft 303 kts 191°
2026-05-07 17:36 60.69298 25.22086 8438 ft 299 kts 191°
2026-05-07 17:36 60.67282 25.21367 8214 ft 288 kts 191°
2026-05-07 17:36 60.65351 25.20667 8078 ft 275 kts 191°
2026-05-07 17:36 60.63512 25.19986 7946 ft 263 kts 191°
2026-05-07 17:37 60.61771 25.19343 7805 ft 251 kts 191°
2026-05-07 17:37 60.60085 25.18720 7679 ft 242 kts 190°
2026-05-07 17:37 60.58427 25.18727 7546 ft 240 kts 164°
2026-05-07 17:37 60.56887 25.20058 7178 ft 242 kts 152°
2026-05-07 17:38 60.55423 25.21643 7053 ft 236 kts 151°
2026-05-07 17:38 60.53972 25.23254 7055 ft 239 kts 150°
2026-05-07 17:38 60.52515 25.24877 7053 ft 239 kts 150°
2026-05-07 17:38 60.51058 25.26497 7052 ft 238 kts 151°
2026-05-07 17:39 60.49604 25.28113 7051 ft 239 kts 151°
2026-05-07 17:39 60.48147 25.29735 7053 ft 239 kts 151°
2026-05-07 17:39 60.46692 25.31352 7051 ft 239 kts 151°
2026-05-07 17:39 60.45237 25.32975 6948 ft 238 kts 150°
2026-05-07 17:40 60.43792 25.34574 6670 ft 235 kts 151°
2026-05-07 17:40 60.42331 25.36093 6271 ft 237 kts 160°
2026-05-07 17:40 60.40702 25.36354 5871 ft 239 kts 192°
2026-05-07 17:40 60.39237 25.34822 5483 ft 242 kts 224°
2026-05-07 17:41 60.38247 25.32106 5096 ft 245 kts 238°
2026-05-07 17:41 60.37416 25.29160 4979 ft 238 kts 240°
2026-05-07 17:41 60.36612 25.26202 4984 ft 240 kts 242°
2026-05-07 17:41 60.36132 25.23005 4975 ft 240 kts 270°
2026-05-07 17:42 60.36532 25.19784 4981 ft 238 kts 303°
2026-05-07 17:42 60.37692 25.17472 4979 ft 236 kts 330°
2026-05-07 17:42 60.39132 25.15874 4984 ft 236 kts 335°
2026-05-07 17:42 60.40606 25.14395 4976 ft 237 kts 335°
2026-05-07 17:43 60.42087 25.12934 4983 ft 237 kts 335°
2026-05-07 17:43 60.43572 25.11473 4981 ft 237 kts 336°
2026-05-07 17:43 60.45055 25.10018 4982 ft 237 kts 335°
2026-05-07 17:43 60.46544 25.08571 4971 ft 237 kts 336°
2026-05-07 17:44 60.48037 25.07136 4971 ft 237 kts 335°
2026-05-07 17:44 60.49506 25.05752 4840 ft 237 kts 336°
2026-05-07 17:44 60.51019 25.04321 4430 ft 240 kts 336°
2026-05-07 17:44 60.52449 25.02637 4153 ft 236 kts 316°
2026-05-07 17:45 60.53289 24.99845 3894 ft 234 kts 283°
2026-05-07 17:45 60.53280 24.96595 3637 ft 233 kts 256°
2026-05-07 17:45 60.52845 24.93465 3388 ft 227 kts 251°
2026-05-07 17:45 60.52366 24.90450 3120 ft 221 kts 248°
2026-05-07 17:46 60.51483 24.87997 2862 ft 215 kts 213°
2026-05-07 17:46 60.50140 24.86926 2585 ft 206 kts 189°
2026-05-07 17:46 60.48736 24.86448 2336 ft 203 kts 186°
2026-05-07 17:46 60.47339 24.86051 2067 ft 202 kts 186°
2026-05-07 17:47 60.45951 24.85678 1970 ft 201 kts 186°
2026-05-07 17:47 60.44558 24.85359 1957 ft 201 kts 177°
2026-05-07 17:47 60.43265 24.85905 1993 ft 185 kts 154°
2026-05-07 17:47 60.42139 24.87053 1993 ft 180 kts 151°
2026-05-07 17:48 60.41041 24.88193 1924 ft 175 kts 152°
2026-05-07 17:48 60.39964 24.89306 1735 ft 172 kts 152°
2026-05-07 17:48 60.38907 24.90395 1514 ft 169 kts 150°
2026-05-07 17:48 60.37863 24.91472 1282 ft 166 kts 151°
2026-05-07 17:49 60.36841 24.92525 1082 ft 162 kts 151°
2026-05-07 17:49 60.35863 24.93529 838 ft 152 kts 151°
2026-05-07 17:49 60.34952 24.94467 639 ft 144 kts 150°
2026-05-07 17:49 60.34063 24.95377 417 ft 143 kts 151°
2026-05-07 17:50 60.33191 24.96278 236 ft 142 kts 150°
2026-05-07 17:50 60.32338 24.97162 160 ft 128 kts 152°
2026-05-07 17:50 60.31694 24.97829 151 ft 88 kts 152°
2026-05-07 17:50 60.31246 24.98280 159 ft 44 kts 154°
2026-05-07 17:51 60.31055 24.98438 156 ft 19 kts 175°
2026-05-07 17:51 60.30997 24.98380 155 ft 8 kts 229°
2026-05-07 17:51 60.30974 24.98301 157 ft 5 kts 244°
2026-05-07 17:51 60.30969 24.98278 157 ft 0 kts 250°
2026-05-07 17:53 60.30970 24.98258 158 ft 7 kts 275°
2026-05-07 17:53 60.31026 24.98170 158 ft 11 kts 333°
2026-05-07 17:53 60.31077 24.98116 158 ft 6 kts 331°
2026-05-07 17:54 60.31097 24.98094 158 ft 0 kts 332°
2026-05-07 17:55 60.31099 24.98092 158 ft 0 kts 332°
2026-05-07 17:55 60.31104 24.98087 158 ft 4 kts 332°
2026-05-07 17:55 60.31154 24.98033 159 ft 9 kts 332°
2026-05-07 17:55 60.31222 24.97962 158 ft 13 kts 334°
2026-05-07 17:56 60.31276 24.97910 158 ft 13 kts 334°
2026-05-07 17:56 60.31357 24.97825 157 ft 13 kts 326°
2026-05-07 17:56 60.31382 24.97677 158 ft 10 kts 289°
2026-05-07 17:56 60.31426 24.97613 160 ft 7 kts 333°
2026-05-07 17:57 60.31493 24.97542 160 ft 14 kts 330°
2026-05-07 17:57 60.31568 24.97457 163 ft 10 kts 332°
2026-05-07 17:57 60.31620 24.97404 165 ft 8 kts 333°
2026-05-07 17:57 60.31701 24.97321 166 ft 16 kts 333°
2026-05-07 17:58 60.31792 24.97226 166 ft 14 kts 332°
2026-05-07 17:58 60.31847 24.97146 166 ft 4 kts 284°
2026-05-07 17:58 60.31840 24.97102 166 ft 2 kts 247°
2026-05-07 17:58 60.31836 24.97088 166 ft 2 kts 243°
2026-05-07 17:59 60.31831 24.97070 166 ft 1 kts 243°
2026-05-07 17:59 60.31828 24.97057 166 ft 1 kts 243°
2026-05-07 17:59 60.31827 24.97052 166 ft 0 kts 243°
2026-05-07 17:59 60.31825 24.97047 166 ft 0 kts 243°